GW3065 Weather Reports


Display with metric or nautical units.
time (UTC)temp
F
wind
direction
speed
MPH
gust
MPH
rain 1hr
in
rain 24hr
in
rain mn
in
humidity
%
barometer
mb
20260505073355 52 104 7.0 9.0 0.00 0.00 0.00 15 1012.0
20260505072852 52 111 5.0 6.0 0.00 0.00 0.00 15 1011.8
20260505072348 52 108 5.0 6.0 0.00 0.00 0.00 15 1011.8
20260505071844 52 97 7.0 7.0 0.00 0.00 0.00 15 1012.1
20260505071341 51 110 3.0 3.0 0.00 0.00 0.00 15 1011.8
20260505070839 51 103 5.0 6.0 0.00 0.00 0.00 15 1011.6
20260505070335 51 156 0.0 0.0 0.00 0.00 0.00 15 1011.8
20260505065830 51 161 0.0 0.0 0.00 0.00 0.00 15 1011.6
20260505065327 51 168 0.0 0.0 0.00 0.00 0.00 15 1011.8
20260505064825 51 170 0.0 0.0 0.00 0.00 0.00 15 1011.4
20260505064321 52 168 0.0 0.0 0.00 0.00 0.00 15 1011.9
20260505063820 52 175 3.0 3.0 0.00 0.00 0.00 15 1011.6
20260505063315 52 164 5.0 5.0 0.00 0.00 0.00 15 1012.0
20260505062812 52 175 3.0 3.0 0.00 0.00 0.00 15 1011.6
20260505062310 52 161 6.0 7.0 0.00 0.00 0.00 15 1011.6
20260505061806 52 191 5.0 6.0 0.00 0.00 0.00 15 1011.5
20260505061305 53 177 7.0 7.0 0.00 0.00 0.00 15 1011.8
20260505060802 53 205 12.0 14.0 0.00 0.00 0.00 15 1010.6
20260505060259 53 194 5.0 7.0 0.00 0.00 0.00 15 1011.8
20260505055754 53 190 6.0 8.0 0.00 0.00 0.00 15 1012.0
20260505055250 53 159 7.0 8.0 0.00 0.00 0.00 15 1012.1
20260505054748 54 153 6.0 7.0 0.00 0.00 0.00 15 1011.9
20260505054245 54 129 14.0 15.0 0.00 0.00 0.00 15 1012.1
20260505053743 54 100 13.0 16.0 0.00 0.00 0.00 15 1012.3
20260505053240 54 111 10.0 11.0 0.00 0.00 0.00 15 1012.2
20260505052737 54 94 9.0 10.0 0.00 0.00 0.00 15 1012.1
20260505052234 55 95 9.0 10.0 0.00 0.00 0.00 15 1012.3
20260505051731 55 72 9.0 10.0 0.00 0.00 0.00 15 1012.1
20260505051229 55 72 8.0 9.0 0.00 0.00 0.00 15 1011.9
20260505050727 55 90 5.0 6.0 0.00 0.00 0.00 15 1011.8
20260505050225 55 146 3.0 3.0 0.00 0.00 0.00 15 1011.5
20260505041654 56 142 14.0 16.0 0.00 0.00 0.00 15 1011.5
20260505041152 57 134 19.0 21.0 0.00 0.00 0.00 15 1011.6
20260505040649 57 137 15.0 17.0 0.00 0.00 0.00 15 1011.4
20260505040146 57 132 15.0 17.0 0.00 0.00 0.00 15 1011.1
20260505035642 58 133 16.0 18.0 0.00 0.00 0.00 15 1011.0
20260505035138 58 128 12.0 14.0 0.00 0.00 0.00 15 1010.7
20260505034635 58 121 9.0 10.0 0.00 0.00 0.00 15 1010.2
20260505034132 57 117 7.0 8.0 0.00 0.00 0.00 15 1010.1
20260505033628 57 104 7.0 8.0 0.00 0.00 0.00 15 1010.2
20260505033127 57 98 7.0 7.0 0.00 0.00 0.00 15 1010.1
20260505032625 57 112 3.0 3.0 0.00 0.00 0.00 15 1009.8
20260505032121 58 116 6.0 7.0 0.00 0.00 0.00 15 1009.6
20260505031618 59 133 5.0 5.0 0.00 0.00 0.00 15 1009.8
20260505031114 58 151 3.0 3.0 0.00 0.00 0.00 15 1009.8
20260505030611 58 166 2.0 2.0 0.00 0.00 0.00 15 1009.8
20260505030107 58 172 2.0 2.0 0.00 0.00 0.00 15 1009.7
20260505025602 58 192 1.0 1.0 0.00 0.00 0.00 15 1009.8
20260505025057 59 207 3.0 3.0 0.00 0.00 0.00 15 1009.8
20260505024553 60 201 4.0 5.0 0.00 0.00 0.00 15 1009.9
20260505024051 60 199 5.0 5.0 0.00 0.00 0.00 15 1009.7
20260505023548 60 193 5.0 6.0 0.00 0.00 0.00 15 1009.9
20260505023045 60 194 6.0 8.0 0.00 0.00 0.00 15 1009.7
20260505022542 61 173 6.0 7.0 0.00 0.00 0.00 15 1010.1
20260505022040 61 194 7.0 8.0 0.00 0.00 0.00 15 1009.8
20260505021536 62 170 13.0 15.0 0.00 0.00 0.00 15 1010.1
20260505021033 62 188 11.0 13.0 0.00 0.00 0.00 15 1010.3
20260505020532 62 162 7.0 9.0 0.00 0.00 0.00 15 1009.9
20260505020030 62 160 16.0 18.0 0.00 0.00 0.00 15 1010.2
20260505015527 62 161 14.0 17.0 0.00 0.00 0.00 15 1010.2
20260505015024 62 167 11.0 14.0 0.00 0.00 0.00 15 1009.9
20260505014520 62 166 17.0 21.0 0.00 0.00 0.00 15 1009.9
20260505014018 62 149 16.0 18.0 0.00 0.00 0.00 15 1010.2
20260505013515 62 164 19.0 21.0 0.00 0.00 0.00 15 1010.1
20260505013012 63 176 12.0 21.0 0.00 0.00 0.00 15 1010.2
20260505012510 63 164 17.0 21.0 0.00 0.00 0.00 15 1010.1
20260505012007 63 164 20.0 23.0 0.00 0.00 0.00 15 1009.8
20260505011502 63 162 17.0 20.0 0.00 0.00 0.00 15 1009.7
20260505011000 65 177 16.0 18.0 0.00 0.00 0.00 15 1009.6
20260505010455 65 178 21.0 22.0 0.00 0.00 0.00 15 1009.7
20260505005951 64 186 15.0 17.0 0.00 0.00 0.00 15 1009.5
20260505005448 64 170 15.0 17.0 0.00 0.00 0.00 15 1009.4
20260505004946 65 177 18.0 21.0 0.00 0.00 0.00 15 1009.3
20260505004442 65 173 17.0 23.0 0.00 0.00 0.00 15 1009.4
20260505003939 65 168 18.0 21.0 0.00 0.00 0.00 15 1009.0
20260505003437 64 154 18.0 18.0 0.00 0.00 0.00 15 1009.0
20260505002933 63 158 13.0 17.0 0.00 0.00 0.00 15 1009.1
20260505002429 63 175 9.0 13.0 0.00 0.00 0.00 15 1008.8
20260505001928 63 137 12.0 14.0 0.00 0.00 0.00 15 1008.9
20260505001425 63 160 15.0 16.0 0.00 0.00 0.00 15 1008.9
20260505000921 63 159 11.0 13.0 0.00 0.00 0.00 15 1009.1
20260505000420 63 131 12.0 14.0 0.00 0.00 0.00 15 1009.7
20260504235916 63 115 17.0 18.0 0.00 0.00 0.00 15 1009.5
20260504235408 63 142 15.0 17.0 0.00 0.00 0.00 15 1009.1
20260504234904 63 162 14.0 18.0 0.00 0.00 0.00 15 1009.0
20260504234402 64 146 17.0 21.0 0.00 0.00 0.00 15 1008.8
20260504233858 64 178 18.0 22.0 0.00 0.00 0.00 15 1008.6
20260504233354 64 170 14.0 16.0 0.00 0.00 0.00 15 1008.6
20260504232850 64 166 17.0 21.0 0.00 0.00 0.00 15 1008.4
20260504232348 64 161 19.0 27.0 0.00 0.00 0.00 15 1008.2
20260504231844 64 171 24.0 30.0 0.00 0.00 0.00 15 1008.5
20260504231341 64 155 24.0 29.0 0.00 0.00 0.00 15 1008.5
20260504230837 65 159 28.0 31.0 0.00 0.00 0.00 15 1008.4
20260504230335 64 139 26.0 32.0 0.00 0.00 0.00 15 1008.1
20260504225834 66 170 22.0 25.0 0.00 0.00 0.00 15 1007.9
20260504225330 65 190 30.0 37.0 0.00 0.00 0.00 15 1007.9
20260504224827 65 147 22.0 26.0 0.00 0.00 0.00 15 1007.7
20260504224324 65 197 24.0 29.0 0.00 0.00 0.00 15 1007.6
20260504223821 66 164 27.0 29.0 0.00 0.00 0.00 15 1007.6
20260504223316 68 181 32.0 35.0 0.00 0.00 0.00 15 1007.6
20260504222813 71 183 25.0 30.0 0.00 0.00 0.00 15 1007.3
20260504222310 76 183 13.0 14.0 0.00 0.00 0.00 15 1007.8
20260504221808 74 196 10.0 11.0 0.00 0.00 0.00 15 1007.9
20260504221305 75 168 8.0 10.0 0.00 0.00 0.00 15 1007.7
20260504220802 74 213 5.0 6.0 0.00 0.00 0.00 15 1007.8
20260504220258 75 190 3.0 5.0 0.00 0.00 0.00 15 1007.8
20260504215756 74 148 1.0 2.0 0.00 0.00 0.00 15 1007.8
20260504215252 74 186 5.0 6.0 0.00 0.00 0.00 15 1008.0
20260504214748 72 179 0.0 0.0 0.00 0.00 0.00 15 1007.8
20260504214244 73 108 3.0 3.0 0.00 0.00 0.00 15 1007.8
20260504213741 73 132 8.0 11.0 0.00 0.00 0.00 15 1008.0
20260504213232 73 151 1.0 3.0 0.00 0.00 0.00 15 1008.1
20260504212729 76 147 4.0 5.0 0.00 0.00 0.00 15 1008.5
20260504212225 75 187 5.0 6.0 0.00 0.00 0.00 15 1008.5
20260504211722 73 142 3.0 3.0 0.00 0.00 0.00 15 1008.6
20260504211213 73 70 3.0 3.0 0.00 0.00 0.00 15 1008.6
20260504210711 72 207 2.0 2.0 0.00 0.00 0.00 15 1008.6
20260504210208 72 240 6.0 7.0 0.00 0.00 0.00 15 1008.8
20260504205705 71 212 7.0 8.0 0.00 0.00 0.00 15 1008.9
20260504205202 70 201 5.0 7.0 0.00 0.00 0.00 15 1009.1
20260504204701 70 171 7.0 7.0 0.00 0.00 0.00 15 1009.1
20260504204159 70 156 5.0 6.0 0.00 0.00 0.00 15 1009.1
20260504203657 70 136 7.0 7.0 0.00 0.00 0.00 15 1009.4
20260504203154 70 158 9.0 10.0 0.00 0.00 0.00 15 1009.1
20260504202649 71 185 9.0 10.0 0.00 0.00 0.00 15 1009.4
20260504202146 71 192 4.0 5.0 0.00 0.00 0.00 15 1009.5
20260504201643 71 197 7.0 7.0 0.00 0.00 0.00 15 1009.5
20260504201141 72 189 10.0 11.0 0.00 0.00 0.00 15 1009.4
20260504200638 72 162 4.0 5.0 0.00 0.00 0.00 15 1009.5
20260504200134 73 156 11.0 11.0 0.00 0.00 0.00 15 1009.5
20260504195630 73 159 7.0 8.0 0.00 0.00 0.00 15 1009.5
20260504195127 73 132 4.0 6.0 0.00 0.00 0.00 15 1009.8
20260504194624 73 94 10.0 13.0 0.00 0.00 0.00 15 1009.7
20260504194120 72 118 10.0 10.0 0.00 0.00 0.00 15 1009.8
20260504193616 71 132 15.0 16.0 0.00 0.00 0.00 15 1009.7
20260504193114 71 171 5.0 5.0 0.00 0.00 0.00 15 1010.1
20260504192612 73 161 9.0 9.0 0.00 0.00 0.00 15 1009.9
20260504192110 72 183 6.0 7.0 0.00 0.00 0.00 15 1010.1
20260504191608 71 166 7.0 8.0 0.00 0.00 0.00 15 1010.3
20260504191104 71 193 9.0 11.0 0.00 0.00 0.00 15 1010.3
20260504190600 70 172 7.0 10.0 0.00 0.00 0.00 15 1010.5
20260504190056 71 177 8.0 9.0 0.00 0.00 0.00 15 1010.3
20260504185553 71 222 12.0 15.0 0.00 0.00 0.00 15 1010.6
20260504185050 71 199 13.0 15.0 0.00 0.00 0.00 15 1010.5
20260504184546 70 197 7.0 9.0 0.00 0.00 0.00 15 1010.7
20260504184041 70 204 2.0 2.0 0.00 0.00 0.00 15 1010.7
20260504183538 70 168 4.0 5.0 0.00 0.00 0.00 15 1011.0
20260504183036 69 192 12.0 13.0 0.00 0.00 0.00 15 1010.7
20260504182533 70 160 9.0 11.0 0.00 0.00 0.00 15 1011.0
20260504182031 69 122 7.0 8.0 0.00 0.00 0.00 15 1011.0
20260504181527 68 195 4.0 7.0 0.00 0.00 0.00 15 1010.7
20260504181026 70 184 3.0 5.0 0.00 0.00 0.00 15 1011.0
20260504180524 71 185 5.0 7.0 0.00 0.00 0.00 15 1010.7
20260504180023 69 53 5.0 6.0 0.00 0.00 0.00 15 1011.0
20260504175519 70 145 0.0 1.0 0.00 0.00 0.00 15 1011.0
20260504175017 70 90 3.0 3.0 0.00 0.00 0.00 15 1011.1
20260504174514 68 115 3.0 3.0 0.00 0.00 0.00 15 1011.2
20260504174011 68 149 3.0 3.0 0.00 0.00 0.00 15 1011.2
20260504173508 67 40 7.0 8.0 0.00 0.00 0.00 15 1011.4
20260504173005 68 320 8.0 9.0 0.00 0.00 0.00 15 1011.0
20260504172501 67 30 4.0 6.0 0.00 0.00 0.00 15 1011.3
20260504171957 66 235 4.0 5.0 0.00 0.00 0.00 15 1011.2
20260504171455 68 193 3.0 3.0 0.00 0.00 0.00 15 1011.2
20260504170951 66 183 4.0 5.0 0.00 0.00 0.00 15 1011.4
20260504170447 66 187 5.0 6.0 0.00 0.00 0.00 15 1011.3
20260504160408 63 159 1.0 1.0 0.00 0.00 0.00 15 1011.9
20260504150832 59 186 3.0 3.0 0.00 0.00 0.00 15 1012.3
20260504150328 58 183 3.0 3.0 0.00 0.00 0.00 15 1012.4
20260504141258 50 311 2.0 2.0 0.00 0.00 0.00 15 1012.8
20260504140755 49 310 2.0 2.0 0.00 0.00 0.00 15 1012.7
20260504140250 48 311 2.0 2.0 0.00 0.00 0.00 15 1012.8
20260504130719 41 317 4.0 5.0 0.00 0.00 0.00 15 1012.7
20260504130215 39 317 3.0 3.0 0.00 0.00 0.00 15 1012.7
20260504120139 42 307 4.0 5.0 0.00 0.00 0.00 15 1012.2
20260504110607 40 317 2.0 2.0 0.00 0.00 0.00 15 1012.5
20260504100528 41 338 2.0 3.0 0.00 0.00 0.00 15 1012.7
20260504081921 47 325 3.0 3.0 0.00 0.00 0.00 15 1012.9
20260504081418 46 321 5.0 6.0 0.00 0.00 0.00 15 1012.8
20260504080914 47 351 3.0 3.0 0.00 0.00 0.00 15 1012.7
20260504080411 47 351 3.0 3.0 0.00 0.00 0.00 15 1013.0